Location: Catstown
(52.4386°N, 7.2633°W)
Time: 17:29:51
(UTC+00:00)

IGS 5A - Pass Details

Date: 18 September 2020
Orbit: 583 x 588 km, 97.6° (Epoch: 09 October)

Event Time Altitude Azimuth Distance (km) Brightness Sun altitude
Exits shadow 21:13:36 72° 48° (NE) 621 3.4 -23.2°
Drops below altitude 10° 21:17:34 10° 349° (N) 1,920 6.7 -23.6°
Sets 21:19:44 0° 348° (NNW) 2,824 7.7 -23.9°
